Volver al catálogo

STARLINK-35446

ActivoComunicacionesVLEO
NORAD 66432·PAYLOAD·🇺🇸 United States

Lanzado Nov 11, 2025 desde Cape Canaveral Space Force Station

Loading…

Próximos Pases (próximas 24 horas)

TLE

ActualizadoSource: CelesTrak SupGP

Época: Sep 14, 2026, 20:30 UTC

1 66432C 25259L   26257.85465278 -.00009982  00000+0 -36161-3 0  2577
2 66432  43.0003 285.8039 0001232 263.6443 122.7455 15.27576915    19

Sigue STARLINK-35446 en tiempo real con AllMySat

Download on the App Store